Simultaneous Nadir Overpasses (SNOs) Predictions

Prediction of SNOs between AURA and NPP Satellite Orbit:

Table of predicted SNOs for the next 14.0 days since TLE Epoch: 3/22/2019
Index Date (AURA) Time (AURA) Lat,Lon (AURA) SZA (AURA ) Date (NPP) Time (NPP) Lat,Lon (NPP) SZA (NPP ) Distance(km) Time Diff (sec)
1 03/25/2019 03:41:55 79.57, 21.88 90.91 03/25/2019 03:41:14 79.57, 21.97 90.93 2.07 41
2 03/25/2019 04:31:18 -79.72,-169.38 89.33 03/25/2019 04:31:55 -79.71,-169.49 89.34 2.46 37
3 03/27/2019 19:58:24 79.64, 138.26 89.74 03/27/2019 19:58:05 79.65, 138.40 89.72 2.95 19
4 03/27/2019 20:47:47 -79.79, -52.97 90.51 03/27/2019 20:48:46 -79.79, -53.03 90.54 1.32 59
5 03/30/2019 11:25:34 -79.45, 85.14 91.04 03/30/2019 11:24:20 -79.45, 85.22 91.00 1.65 74
6 03/30/2019 12:14:55 79.63,-105.92 88.69 03/30/2019 12:14:59 79.62,-106.02 88.70 2.11 4
7 04/02/2019 03:42:05 -79.44,-159.06 92.07 04/02/2019 03:41:14 -79.43,-159.18 92.01 2.69 51
8 04/02/2019 04:31:23 79.73, 10.68 87.48 04/02/2019 04:31:49 79.73, 10.67 87.46 0.33 26
9 04/04/2019 19:58:31 -79.57, -42.24 93.32 04/04/2019 19:58:02 -79.57, -42.24 93.30 0.29 29




NCC Satellite Simultaneous Nadir Overpasses (SNOs) Prediction Service
